Location: Basse Occidentale du Courleau
(48.3833°N, 4.8333°W)
Time: 09:39:41
(UTC+00:00)

CZ-4C R/B - Pass Details

Date: 05 July 2020
Orbit: 632 x 1370 km, 63.4° (Epoch: 08 August)

Event Time Altitude Azimuth Distance (km) Brightness Sun altitude
Rises 23:22:53 0° 316° (NW) 3,644 6.6 -17.6°
Reaches altitude 10° 23:25:30 10° 324° (NW) 2,806 6.0 -17.7°
Maximum altitude 23:31:45 38° 32° (NNE) 1,678 4.1 -18.0°
Drops below altitude 10° 23:39:01 10° 99° (E) 3,266 5.0 -18.2°
Sets 23:42:17 0° 107° (ESE) 4,307 5.6 -18.3°
